星链-31267 (STARLINK-31267 )

导读

STARLINK-31267是美国SpaceX公司星链(Starlink)星座的一颗低轨卫星,于2024年4月10日发射入轨。星链项目旨在通过构建大规模低地轨道卫星星座,为全球尤其是基础设施匮乏区域提供高速、低延迟的宽带互联网服务,目前已完成上万颗卫星部署,该卫星的加入进一步扩展了星链星座的全球覆盖能力与服务容量。

基本信息
目录编号:
59468
目录名称:
STARLINK-31267
国际标识:
2024-068P
轨道中心:
EARTH
卫星名称:
星链-31267
卫星全名:
星链-31267 (STARLINK-31267 )
卫星状态:
在轨 (已飞行877 天)
发射日期:
2024-04-10 UTC
国别 :
美国 (US)
星等 :
--
轨道信息
数据来源 国际轨道数据 AOE轨道数据
星历时间 2026-09-04T08:19:04+0800
8小时前
查看轨道信息
2026-08-28T23:00:00+0800
6天前
查看轨道信息
半长轴 6861.195km 6861.193km
偏心率 0.0000881 0.0001642
轨道倾角 43.002° 43.004°
近地点辐角 269.421° 231.466°
升交点赤经 103.222° 139.302°
平近点角 90.654° 236.702°
近地点 482.453km 481.929km
远地点 483.663km 484.183km
周期 94.267分钟 94.267分钟
每日圈数 15.275771 15.275779
详细信息
固有亮度:
5
最大亮度:
1.5
卫星平台:
Starlink v2.0 mini
覆盖范围:
全球
运营商:
太空探索技术公司
运营商所在国:
美国
制造商(研发单位):
太空探索技术公司
制造商所在国:
美国
使用方式:
暂无
卫星简介
星链(Starlink)计划是由太空探索技术公司(SpaceX)提出的一个巨型低轨卫星互联网星座项目,计划在2019年至2024年间在太空搭建由约1.2万颗卫星组成的“星链”网络,其中1584颗将部署在地球上空550千米处的近地轨道,并从2020年开始工作。该卫星仍在工作。
2D轨道图
3D轨道图
轨道高度分析图
轨道倾角分析图
轨道综合分析图
查看轨道综合分析图
交会数据列表
事件ID 空间交会对象 最接近时刻(TCA) 交会距离 交会风险概率(CRP) 交会风险指数(CRI) 操作
CDM_260905-101605-684005-946821
2026-09-05T
10:16:28+0000
0.924 km
远距离
2.277244E-5 中风险 0.62
CDM_260905-071405-946806-648521
2026-09-05T
07:14:45+0000
1.006 km
极远距离
9.856839E-6 低风险 0.55
CDM_260905-031905-946806-648521
2026-09-05T
03:19:22+0000
1.154 km
极远距离
6.152799E-6 低风险 0.51
CDM_260905-115005-684005-946821
2026-09-05T
11:50:37+0000
1.755 km
极远距离
2.716743E-6 低风险 0.44
CDM_260905-014505-946806-648522
2026-09-05T
01:45:12+0000
1.694 km
极远距离
1.835197E-6 低风险 0.4
CDM_260903-003505-946806-124122
OBJECT D (61241)
2026-09-03T
00:35:13+0000
2.506 km
极远距离
1.687093E-6 低风险 0.4
CDM_260905-054404-489005-946821
OBJECT M (44890)
2026-09-05T
05:44:19+0000
2.996 km
极远距离
1.177577E-6 低风险 0.36
CDM_260905-054005-946806-648522
2026-09-05T
05:40:36+0000
2.497 km
极远距离
7.791351E-7 极低风险 0.33